Jack Holland — WDF3615 — position and weather

sailwx.info

Track history (hours):
 
Tides and Currents Weather Stations Pressure Air Temp Water Temp Dewpoint Dewpoint Depression Visibility Wind Speed Wind Dir Waves Ship Positions

Jack Holland

Owner: Norfolk Tug Company, Norfolk, VA. More information available from US FCC via Universal Licensing System and Coast Guard Vessel Documentation Center.

Last reported at 2014-Oct-30 00:30 UTC. Time now 2014-Nov-01 02:34 UTC.
Position N 36°50' W 076°16'.

Length 22 m; draft 2.5 m.

Type: Tug. MMSI: 367442020.

Date/timePositionNaut miles runAvg speedWind from/ knotsBaromVisibWave heightAir tempDewpointWater temp
2014-Oct-30 00:30N 36°50' W 076°16'0 0.0
2014-Oct-29 23:33N 36°50' W 076°16'106 2.9
2014-Oct-28 11:18N 35°05' W 076°32'6 8.2
2014-Oct-28 10:33N 35°01' W 076°38'6 5.9
2014-Oct-28 09:33N 34°56' W 076°39'5 4.9
2014-Oct-28 08:33N 34°51' W 076°41'5 5.1
2014-Oct-28 07:33N 34°46' W 076°41'4 3.9
2014-Oct-28 06:33N 34°43' W 076°44'7 6.6
2014-Oct-28 05:33N 34°43' W 076°52'6 6.4
2014-Oct-28 04:33N 34°42' W 076°59'7 6.1
2014-Oct-28 03:29N 34°41' W 077°07'6 6.6
2014-Oct-28 02:33N 34°37' W 077°13'2 2.0
2014-Oct-28 01:23N 34°35' W 077°15'  
2014-Oct-25 03:25N 32°08' W 080°53'5 5.0
2014-Oct-25 02:28N 32°05' W 080°57'5 6.0
2014-Oct-25 01:33N 32°02' W 081°03'  
2014-Oct-21 07:28N 27°05' W 080°08'4 4.0
2014-Oct-21 06:33N 27°01' W 080°06'5 4.7
2014-Oct-21 05:33N 26°57' W 080°05'3 3.2
2014-Oct-21 04:33N 26°54' W 080°04'4 3.6
2014-Oct-21 03:31N 26°50' W 080°04'22 5.0
2014-Oct-20 23:06N 26°28' W 080°04'3 4.5
2014-Oct-20 22:30N 26°25' W 080°04'5 5.5
2014-Oct-20 21:33N 26°20' W 080°05'5 5.3
2014-Oct-20 20:33N 26°15' W 080°05'5 5.4
2014-Oct-20 19:33N 26°09' W 080°06'5 4.7
2014-Oct-20 18:33N 26°05' W 080°07'5 5.2
2014-Oct-20 17:33N 25°59' W 080°07'5 4.9
2014-Oct-20 16:34N 25°55' W 080°08'  
Track history (hours):
 
Tides and Currents Weather Stations Pressure Air Temp Water Temp Dewpoint Dewpoint Depression Visibility Wind Speed Wind Dir Waves Ship Positions

Jack Holland

Owner: Norfolk Tug Company, Norfolk, VA. More information available from US FCC via Universal Licensing System and Coast Guard Vessel Documentation Center.

Last reported at 2014-Oct-30 00:30 UTC. Time now 2014-Nov-01 02:34 UTC.
Position N 36°50' W 076°16'.

Length 22 m; draft 2.5 m.

Type: Tug. MMSI: 367442020.

Date/timePositionNaut miles runAvg speedWind from/ knotsBaromVisibWave heightAir tempDewpointWater temp
2014-Oct-30 00:30N 36°50' W 076°16'0 0.0
2014-Oct-29 23:33N 36°50' W 076°16'106 2.9
2014-Oct-28 11:18N 35°05' W 076°32'6 8.2
2014-Oct-28 10:33N 35°01' W 076°38'6 5.9
2014-Oct-28 09:33N 34°56' W 076°39'5 4.9
2014-Oct-28 08:33N 34°51' W 076°41'5 5.1
2014-Oct-28 07:33N 34°46' W 076°41'4 3.9
2014-Oct-28 06:33N 34°43' W 076°44'7 6.6
2014-Oct-28 05:33N 34°43' W 076°52'6 6.4
2014-Oct-28 04:33N 34°42' W 076°59'7 6.1
2014-Oct-28 03:29N 34°41' W 077°07'6 6.6
2014-Oct-28 02:33N 34°37' W 077°13'2 2.0
2014-Oct-28 01:23N 34°35' W 077°15'  
2014-Oct-25 03:25N 32°08' W 080°53'5 5.0
2014-Oct-25 02:28N 32°05' W 080°57'5 6.0
2014-Oct-25 01:33N 32°02' W 081°03'  
2014-Oct-21 07:28N 27°05' W 080°08'4 4.0
2014-Oct-21 06:33N 27°01' W 080°06'5 4.7
2014-Oct-21 05:33N 26°57' W 080°05'3 3.2
2014-Oct-21 04:33N 26°54' W 080°04'4 3.6
2014-Oct-21 03:31N 26°50' W 080°04'22 5.0
2014-Oct-20 23:06N 26°28' W 080°04'3 4.5
2014-Oct-20 22:30N 26°25' W 080°04'5 5.5
2014-Oct-20 21:33N 26°20' W 080°05'5 5.3
2014-Oct-20 20:33N 26°15' W 080°05'5 5.4
2014-Oct-20 19:33N 26°09' W 080°06'5 4.7
2014-Oct-20 18:33N 26°05' W 080°07'5 5.2
2014-Oct-20 17:33N 25°59' W 080°07'5 4.9
2014-Oct-20 16:34N 25°55' W 080°08'  

Dump ship's entire track history